User: anonymous   Login
Location: Chuathbaluk
(61.5726°N, 159.2454°W)
Time: 16:14:40
(UTC+00:00)
Language:

Vanguard 3 - Orbit

View from above orbital plane
View from above orbital plane
View from above satellite
View from above satellite

Ground track
Ground track

The orbit data is extracted from the following two-line orbital elements,

1    20U 59007A   20330.71564010 +.00000307 +00000-0 +13201-3 0  9995
2    20 033.3445 327.5535 1666467 042.1712 329.5723 11.55772377249268
Epoch (UTC): 25 November 2020 17:10:31
Eccentricity: 0.1666467
inclination: 33.3445°
perigee height: 508 km
apogee height: 3262 km
right ascension of ascending node: 327.5535°
argument of perigee: 42.1712°
revolutions per day: 11.55772377
mean anomaly at epoch: 329.5723°
orbit number at epoch: 24926

The dashed part of the orbit path shows where the satellite is in the earth's shadow,  

DLR